Location: Newark
(48.1281°N, 2.1556°W)
Time: 08:01:24
(UTC+00:00)

Envisat - Pass Details

Date: 26 November 2019
Orbit: 764 x 766 km, 98.1° (Epoch: 15 December)

Event Time Altitude Azimuth Distance (km) Brightness Sun altitude
Rises 06:38:04 0° 18° (NNE) 3,243 6.2 -8.7°
Reaches altitude 10° 06:40:28 10° 24° (NNE) 2,312 5.5 -8.3°
Maximum altitude 06:45:24 48° 99° (E) 994 4.2 -7.6°
Drops below altitude 10° 06:50:17 10° 173° (S) 2,295 5.9 -6.8°
Sets 06:52:39 0° 179° (S) 3,216 6.6 -6.5°
